Location: Arborea
(39.7744°N, 8.5819°E)
Time: 12:10:05
(UTC+00:00)

OAO 3 Rocket - Visible Passes

Search period start: 29 May 2022 00:00
Search period end: 08 June 2022 00:00
Orbit: 628 x 681 km, 35.0° (Epoch: 28 May)

Date Brightness Start Highest point End Pass type
(mag) Time Alt. Az. Time Alt. Az. Time Alt. Az.
29 May 4.3 19:44:19 10° W 19:48:36 31° SSW 19:51:57 15° SE visible
30 May 4.9 20:12:58 10° WSW 20:16:26 19° SSW 20:18:22 16° S visible
01 Jun 5.1 19:26:00 10° WSW 19:29:16 18° SSW 19:32:33 10° SSE visible
